星链-37987(STARLINK-37987)

导读

STARLINK-37987(NORAD编号69749)是美国太空探索技术公司(SpaceX)研发的星链低轨宽带通信卫星,隶属于星链互联网星座组网单元,为2026年新发射的组网卫星。该卫星运行于近地轨道,轨道周期约91-94分钟,承担低时延卫星宽带网络接入服务,通过星间链路与地面站协同,为全球偏远、地面网络覆盖不足区域提供高速互联网连接,是SpaceX持续扩展星链全球通信覆盖能力的组成部分,截至2026年7月处于在轨正常运行状态。

Basic Information
目录编号:
69749
目录名称:
STARLINK-37987
国际标识:
2026-150L
轨道中心:
EARTH
卫星名称:
星链-37987
卫星全名:
星链-37987(STARLINK-37987)
卫星状态:
在轨 (已飞行64 天)
发射日期:
2026-07-02 UTC
国别 :
美国 (US)
星等 :
--
Orbit Information
数据来源 国际轨道数据 AOE轨道数据
星历时间 2026-09-03T10:55:50+0800
1天前
查看轨道信息
2026-09-03T22:00:00+0800
17小时前
查看轨道信息
半长轴 6843.701km 6843.658km
偏心率 0.0001741 0.0001992
轨道倾角 97.285° 97.284°
近地点辐角 91.222° 76.740°
升交点赤经 85.310° 85.762°
平近点角 268.923° 307.919°
近地点 464.372km 464.157km
远地点 466.756km 466.885km
周期 93.907分钟 93.906分钟
每日圈数 15.334382 15.334526
Detailed Information
固有亮度:
5
最大亮度:
2.5
卫星平台:
Starlink V1.0
覆盖范围:
全球
运营商:
太空探索技术公司
运营商所在国:
美国
制造商(研发单位):
太空探索技术公司
制造商所在国:
美国
使用方式:
暂无
Satellite Introduction
Starlink 计划是 SpaceX 推出的全球卫星互联网项目,通过发射低轨道卫星,为全球尤其是偏远地区提供高速、低延迟的互联网服务。自 2019 年起,Starlink 已部署数千颗卫星,旨在缩小全球数字鸿沟,推动互联网普及。该项目还为军事、航空等行业提供通信支持,带来广泛经济效益。
2D Orbit Map
3D Orbit Map
Orbit Altitude Analysis Chart
Orbit Inclination Analysis Chart
Orbit Comprehensive Analysis Chart
View Comprehensive Chart
Conjunction Data List
Event ID Objects TCA Miss Dist (km) Collision Risk Probability Collision Risk Index (CRI) Action
CDM_260904-025906-863106-974922
OBJECT E (68631)
2026-09-04T
02:59:41+0000
1.788 km
极远距离
3.836367E-6 低风险 0.47
CDM_260903-064205-171906-974923
2026-09-03T
06:42:54+0000
2.151 km
极远距离
2.370401E-6 低风险 0.42
CDM_260903-182304-840106-974922
2026-09-03T
18:23:33+0000
2.479 km
极远距离
1.718929E-6 低风险 0.4
CDM_260904-111604-607506-974921
2026-09-04T
11:16:07+0000
2.914 km
极远距离
1.211129E-6 低风险 0.37
CDM_260905-081205-083406-974921
2026-09-05T
08:12:41+0000
2.392 km
极远距离
1.097055E-6 低风险 0.36